Weather Roundup
Issued by NWS

Home | Current Version | Previous Version | Text Only | Print | Product List | Glossary On
Versions: 1 2 3 4 5 6 7 8 9 10 11 12 13 14 15 16 17 18 19 20 21 22 23 24 25 26 27 28 29 30 31 32 33 34 35 36 37 38 39 40 41 42 43 44 45 46 47 48 49 50
000
NZUS93 KARX 300110
HRRWXR

CURRENT HOURLY OBSERVATIONS ACROSS
MUCH OF THE UPPER MISSISSIPPI VALLEY
NATIONAL WEATHER SERVICE LA CROSSE WI
800 PM CDT FRI AUG 29 2014


...SOUTHEAST MINNESOTA...


CITY           SKY/WX    TMP DP  RH WIND       PRES   REMARKS
ROCHESTER      LGT RAIN  72  69  90 W5        29.79R FOG
ROCHESTER/MAYO CLOUDY    73  68  82 W6        29.77S
WINONA         CLOUDY    70  66  88 S3        29.75F
AUSTIN         LGT RAIN  72  66  83 CALM      29.78R
ALBERT LEA     RAIN      72  70  94 CALM      29.77F
DODGE CENTER   CLOUDY    72  70  94 CALM      29.78S
PRESTON        TSTM      67  67 100 S3        29.80S
OWATONNA       CLOUDY    73  70  88 SW3       29.76F
FARIBAULT      CLOUDY    75  66  73 CALM      29.76S
$$

...ELSEWHERE IN MINNESOTA...


CITY           SKY/WX    TMP DP  RH WIND       PRES   REMARKS
MINNEAPOLIS    LGT RAIN  70  70 100 N5        29.75R
INTNL FALLS    LGT RAIN  66  63  90 NW10      29.78R FOG
DULUTH         FOG       62  60  93 CALM      29.78S VSB 3/4
RED WING       RAIN      72  70  94 NE8       29.76R
REDWOOD FALLS  LGT RAIN  66  65  96 W5        29.76F
MANKATO        CLOUDY    70  63  78 CALM      29.75F
WORTHINGTON    CLOUDY    68  64  88 N5        29.81S
FAIRMONT       CLOUDY    66  63  88 CALM      29.76F
$$

...SOUTHWEST WISCONSIN...


CITY           SKY/WX    TMP DP  RH WIND       PRES   REMARKS
LA CROSSE      CLOUDY    72  68  87 SE7       29.76R
PRAIRIE DU CHI CLOUDY    81  67  63 SE9       29.75F
BOSCOBEL       CLOUDY    82  68  62 S7        29.76F
LONE ROCK      CLOUDY    84  72  67 SE7       29.79S
PLATTEVILLE    CLOUDY    70  67  89 N6        29.82S
FORT MC COY    RAIN      70  67  89 NW9       29.81R
CAMP DOUGLAS   MOCLDY    78  73  83 SE5       29.78S
VIROQUA        FAIR      77  69  75 SW3       29.80R
WIS DELLS      MOCLDY    78  69  74 S8        29.80F
$$

...ELSEWHERE IN WISCONSIN...


CITY           SKY/WX    TMP DP  RH WIND       PRES   REMARKS
MILWAUKEE      PTCLDY    76  69  79 S14       29.87R
MADISON        CLOUDY    80  70  71 S9        29.82S
GREEN BAY      MOCLDY    75  71  87 S8        29.82R
EAU CLAIRE     TSTM      69  68  96 SE7       29.75F FOG
BLACK RVR FLS  RAIN      70  65  84 S5        29.78S
MEDFORD        TSTM      64  63  97 SE6       29.83F
WAUSAU         MOCLDY    71  64  78 W22G33    29.84R
WIS RAPIDS     MOCLDY    77  71  82 S5        29.80S
MARSHFIELD     LGT RAIN  67  64  90 NW16      29.80S FOG
RICE LAKE      CLOUDY    65  64  94 W6        29.81R VSB 3/4
$$

...NORTHEAST IOWA...


CITY           SKY/WX    TMP DP  RH WIND       PRES   REMARKS
WATERLOO       LGT RAIN  70  65  84 CALM      29.78R
DUBUQUE        CLOUDY    76  70  82 S14       29.80F
DECORAH        CLOUDY    68  66  94 CALM      29.79F
MASON CITY     LGT RAIN  68  68 100 CALM      29.80R FOG
CHARLES CITY   CLOUDY    66  64  94 CALM      29.79F
OELWEIN        CLOUDY    68  68 100 S6        29.80S
$$

...ELSEWHERE IN IOWA...


CITY           SKY/WX    TMP DP  RH WIND       PRES   REMARKS
DES MOINES     MOCLDY    72  69  90 S7        29.77S
IOWA CITY      MOCLDY    72  68  87 CALM      29.79F
FORT DODGE     CLOUDY    68  66  94 CALM      29.78S
MARSHALLTOWN   CLOUDY    69  68  96 SE3       29.77S
CEDAR RAPIDS   MOCLDY    69  69 100 S6        29.78F
$$

...NORTHERN ILLINOIS...


CITY           SKY/WX    TMP DP  RH WIND       PRES   REMARKS
CHICAGO-OHARE  MOCLDY    80  68  66 S10       29.88S
DUPAGE         PTCLDY    79  71  76 SE8       29.88R
CHICAGO-MIDWAY MOCLDY    82  72  71 SE14G24   29.88F
MOLINE         RAIN      78  71  79 S12       29.80F
ROCKFORD       MOCLDY    78  71  79 SE15      29.86S THUNDER
STERLING       MOCLDY    73  66  78 SE6       29.84S
PEORIA         MOCLDY    77  70  79 SE3       29.84F
$$

NOTE: "FAIR" INDICATES FEW OR NO CLOUDS BELOW 12,000 FEET WITH NO
SIGNIFICANT WEATHER AND/OR OBSTRUCTIONS TO VISIBILITY. WIND
SPEEDS ARE IN MILES-PER-HOUR.



USA.gov is the U.S. government's official web portal to all federal, state and local government web resources and services.